Location: Unspecified
(43.8044°N, 11.0278°E)
Time: 13:55:27
(UTC+02:00)

Okean 3 - Visible Passes

Search period start: 25 October 2014 00:00
Search period end: 03 November 2014 23:00
Orbit: 584 x 608 km, 82.5° (Epoch: 24 October)

Date Brightness Start Highest point End Pass type
(mag) Time Alt. Az. Time Alt. Az. Time Alt. Az.
01 Nov 6.6 05:34:11 10° NE 05:36:00 12° ENE 05:37:48 10° E visible
02 Nov 6.3 05:43:18 10° NNE 05:46:19 19° ENE 05:49:18 10° ESE visible
03 Nov 5.7 05:52:54 10° NNE 05:56:34 27° ENE 06:00:12 10° SE visible
